This demonstration page uses our WeatherBlox Daily Observations layout. Learn more.

Left ArrowRight Arrow

Hourly Observations for February 11, 2020

Temp ( °F °C ) Dew Point ( °F °C ) Humidity (%) Winds ( mph kmh ) Pressure ( in mb ) Visibility ( mi km ) Precip ( " mm )
12:53 am 00:53 Clear 16 -8.9 10 -12.2 77 77 SW 12 19 30.11 1020 10 16 0.00 0.00
1:53 am 01:53 Clear 20 -6.7 13 -10.6 74 74 SW 15 24 30.06 1018 10 16 0.00 0.00
2:53 am 02:53 Clear 22 -5.6 14 -10 71 71 SW 18 30 30.02 1017 10 16 0.00 0.00
3:53 am 03:53 Clear 25 -3.9 16 -8.9 69 69 SW 23 37 29.97 1015 10 16 0.00 0.00
4:53 am 04:53 Mostly Clear 24 -4.4 16 -8.9 71 71 SW 23 37 29.94 1014 10 16 0.00 0.00
5:53 am 05:53 Mostly Clear 27 -2.8 18 -7.8 69 69 SW 24 39 29.92 1013 10 16 0.00 0.00
6:53 am 06:53 Clear 27 -2.8 18 -7.8 69 69 SW 23 37 29.88 1012 10 16 0.00 0.00
7:53 am 07:53 Sunny 28 -2.2 19 -7.2 69 69 SW 24 39 29.85 1011 10 16 0.00 0.00
8:53 am 08:53 Mostly Cloudy 30 -1.1 21 -6.1 69 69 SW 26 43 29.81 1010 10 16 0.00 0.00
9:53 am 09:53 Mostly Cloudy 33 0.6 23 -5 66 66 SW 26 43 29.78 1009 10 16 0.00 0.00
10:53 am 10:53 Cloudy 36 2.2 26 -3.3 67 67 WSW 29 46 29.78 1008 10 16 0.00 0.00
11:53 am 11:53 Cloudy 35 1.7 29 -1.7 78 78 SW 24 39 29.76 1008 9 14 0.00 0.00
12:53 pm 12:53 Cloudy 38 3.3 28 -2.2 68 68 W 32 52 29.74 1007 10 16 0.00 0.00
1:53 pm 13:53 Cloudy 38 3.3 28 -2.2 68 68 W 21 33 29.71 1006 10 16 0.00 0.00
2:07 pm 14:07 Cloudy 37 2.8 28 -2.2 70 70 W 24 39 29.70 1006 10 16 0.00 0.00
2:24 pm 14:24 Cloudy 37 2.8 30 -1.1 76 76 WSW 20 31 29.69 1005 10 16 0.00 0.00
2:53 pm 14:53 Cloudy 38 3.3 28 -2.2 68 68 WNW 21 33 29.71 1006 10 16 0.00 0.00
3:21 pm 15:21 Cloudy with Light Rain 37 2.8 29 -1.7 73 73 WNW 17 28 29.72 1006 10 16 0.00 0.00
3:50 pm 15:50 Cloudy 37 3 28 -2 70 70 WNW 9 15 29.72 1006 10 16 0.00 0.00
3:53 pm 15:53 Cloudy 37 2.8 28 -2.2 70 70 WNW 10 17 29.72 1006 10 16 0.00 0.00
4:53 pm 16:53 Cloudy 36 2.2 29 -1.7 76 76 WNW 8 13 29.74 1007 10 16 0.00 0.00
5:53 pm 17:53 Cloudy 35 1.7 30 -1.1 82 82 WNW 6 9 29.76 1008 10 16 0.00 0.00
6:53 pm 18:53 Cloudy 34 1.1 30 -1.1 85 85 W 9 15 29.79 1009 10 16 0.00 0.00
7:51 pm 19:51 Cloudy 34 1 30 -1 87 87 W 12 19 29.84 1010 10 16 0.00 0.00
7:53 pm 19:53 Cloudy 34 1.1 30 -1.1 85 85 W 10 17 29.83 1010 10 16 0.00 0.00
8:01 pm 20:01 Cloudy 34 1.1 30 -1.1 85 85 W 10 17 29.85 1011 10 16 0.00 0.00
8:26 pm 20:26 Cloudy 34 1 30 -1 87 87 WNW 10 17 29.87 1011 10 16 0.00 0.00
8:53 pm 20:53 Cloudy 34 1.1 31 -0.6 89 89 W 12 19 29.87 1011 10 16 0.00 0.00
9:34 pm 21:34 Cloudy 34 1.1 31 -0.6 89 89 WNW 15 24 29.91 1013 10 16 0.00 0.00
9:53 pm 21:53 Cloudy 34 1.1 31 -0.6 89 89 WNW 10 17 29.90 1012 10 16 0.00 0.00
10:53 pm 22:53 Cloudy 33 0.6 30 -1.1 89 89 WNW 14 22 29.92 1013 10 16 0.00 0.00
11:35 pm 23:35 Windy with Snow Likely 30 -1.1 27 -2.8 88 88 NNE 23 37 30.02 1017 2 3 0.00 0.00
11:40 pm 23:40 Cloudy with Light Snow 30 -1.1 26 -3.3 85 85 NNE 16 26 30.02 1017 4 6 0.00 0.00
11:53 pm 23:53 Cloudy with Light Snow 29 -1.7 26 -3.3 89 89 NNE 16 26 30.00 1016 2 2 0.00 0.00
11:56 pm 23:56 Cloudy with Light Snow 28 -2 27 -3 93 93 NNE 14 22 30.05 1018 1 2 0.00 0.00

Powered by AerisWeather